GFSNGP_925_temp_276.txt.gz
Temp
1 3 4 5 2 2 -0 1 2 7 5 6 6 5 6 5 5 6 6 6 5 5 6 7 8 7 7 6 6 5 4 3 3 3 3 3 4 4 4 5 5 6 7 9
3 5 4 5 5 5 5 4 3 4 4 6 7 5 6 6 6 6 5 5 5 6 6 6 7 7 6 6 5 5 4 3 3 3 3 3 3 4 4 4 4 5 5 7
1 5 5 2 6 6 7 6 6 4 6 7 6 6 6 6 6 6 6 5 5 6 6 7 7 6 6 5 5 4 3 3 2 3 2 2 2 3 4 4 3 4 5 5
-1 4 -0 7 7 7 6 6 6 5 6 6 6 6 5 5 5 5 6 5 5 6 6 7 7 6 6 5 4 4 3 2 2 2 2 2 2 2 2 3 3 3 4 4
-1 1 5 8 7 6 6 7 7 5 6 6 6 6 5 6 6 5 5 6 7 7 7 7 6 6 5 5 4 3 2 2 2 2 1 1 1 1 1 1 2 3 3 3
-1 -2 0 6 7 8 7 6 6 6 6 5 6 5 6 6 6 6 7 6 7 7 7 7 6 5 4 4 3 2 2 2 2 1 1 1 1 0 0 0 1 1 2 2
-3 -1 4 7 7 8 6 3 7 7 6 5 4 4 6 5 6 7 7 7 7 6 6 6 5 4 4 3 2 2 2 2 1 1 1 0 0 -0 -0 0 0 0 1 1
-1 -4 1 6 6 7 6 6 6 6 6 5 5 5 5 5 5 6 6 6 6 5 5 5 4 3 2 2 1 1 1 1 1 0 0 0 -0 -1 -1 -1 -1 -0 -0 -0
2 3 5 6 7 7 6 6 6 6 6 5 5 5 5 5 5 6 6 5 5 4 4 3 3 2 1 1 0 -0 -0 0 0 -0 -0 0 -1 -1 -1 -1 -1 -1 -1 -1
4 6 5 5 5 5 5 5 5 5 5 5 4 5 4 4 4 5 5 4 3 3 2 1 1 1 0 -0 -1 -1 -0 -0 -0 -1 -0 -0 -1 -1 -1 -2 -1 -1 -1 -1
4 5 5 5 5 4 4 5 4 5 4 4 5 5 4 4 4 4 4 3 2 2 1 1 0 0 -0 -1 -1 -1 -1 -0 -0 -1 -1 -1 -1 -1 -1 -2 -2 -2 -2 -2
4 6 4 4 4 4 4 5 5 4 5 6 5 5 5 4 4 3 3 2 2 1 1 1 -0 -0 -0 -1 -1 -1 -1 -1 -0 -1 -1 -1 -2 -2 -2 -2 -1 -1 -1 -1
5 5 5 5 5 5 4 4 5 4 5 4 5 5 5 3 3 3 2 2 1 1 0 -0 -0 -1 -0 -1 -1 -1 -1 -1 -1 -1 -2 -2 -2 -2 -2 -2 -2 -2 -1 -1
4 3 3 5 4 5 4 4 5 4 4 5 4 4 4 3 3 2 2 1 1 0 -0 -1 -1 -1 -1 -1 -1 -1 -1 -1 -1 -1 -2 -2 -2 -2 -2 -2 -2 -2 -2 -2
4 4 4 5 4 4 4 4 3 3 3 3 3 3 3 2 2 2 1 1 0 -1 -1 -2 -2 -2 -2 -2 -2 -2 -2 -1 -1 -2 -2 -2 -3 -3 -3 -2 -2 -2 -2 -2
3 3 4 3 4 4 4 3 2 2 2 2 2 3 3 2 1 1 1 -0 -1 -2 -3 -3 -3 -2 -2 -3 -3 -3 -2 -2 -2 -2 -3 -3 -3 -3 -3 -3 -2 -2 -2 -2
2 2 3 3 3 3 3 3 3 2 2 2 2 2 2 1 1 0 -0 -1 -2 -2 -3 -3 -3 -3 -3 -3 -3 -3 -3 -3 -3 -3 -3 -3 -3 -3 -3 -3 -3 -2 -2 -2
1 1 1 1 2 2 2 3 3 2 2 2 2 1 1 0 -0 -1 -1 -1 -2 -2 -2 -2 -3 -3 -4 -3 -4 -4 -5 -4 -4 -3 -3 -3 -3 -3 -3 -3 -3 -2 -2 -2
0 1 0 0 0 0 0 -0 0 0 -0 -0 0 1 0 -0 -1 -1 -1 -2 -2 -3 -2 -2 -3 -4 -4 -4 -5 -5 -5 -5 -4 -4 -4 -4 -4 -3 -3 -3 -3 -3 -3 -2
2 2 1 0 1 1 0 0 0 1 1 1 1 -0 -0 -0 -1 -2 -2 -2 -2 -2 -2 -3 -3 -4 -5 -5 -5 -5 -6 -5 -4 -4 -4 -4 -4 -3 -3 -3 -3 -3 -3 -3
0 1 0 0 -0 1 1 2 2 1 1 0 -0 -0 -1 -1 -1 -1 -3 -4 -2 -2 -3 -4 -4 -4 -5 -5 -5 -5 -6 -5 -5 -4 -4 -4 -4 -4 -3 -3 -3 -3 -3 -3
0 -0 0 1 -0 0 1 1 1 0 -1 -1 -1 -1 -2 -2 -1 -1 -1 -3 -2 -3 -4 -5 -5 -5 -5 -5 -5 -5 -6 -6 -6 -5 -4 -4 -4 -4 -4 -4 -3 -3 -3 -3
-1 -1 -0 -1 -1 -1 -1 -1 0 0 -1 -1 -1 -1 -2 -1 -1 -2 -4 -2 -4 -4 -5 -5 -5 -6 -6 -6 -6 -6 -6 -6 -6 -5 -5 -5 -5 -4 -4 -4 -4 -4 -4 -4
-1 -2 -2 -2 -1 -1 -2 -1 0 -0 -1 -1 -1 -0 -1 -1 -1 -2 -3 -4 -4 -5 -6 -6 -6 -6 -7 -7 -7 -7 -7 -7 -6 -6 -6 -5 -5 -5 -4 -4 -5 -5 -5 -4
-2 -2 -2 -2 -2 -2 -2 -1 -1 -1 -1 -1 -1 -1 -1 -2 -3 -4 -4 -5 -5 -6 -6 -7 -7 -7 -8 -8 -8 -8 -8 -8 -7 -6 -6 -6 -5 -5 -4 -5 -5 -5 -5 -6
-3 -3 -3 -3 -3 -3 -3 -2 -3 -2 -2 -3 -3 -3 -3 -4 -4 -5 -5 -6 -6 -7 -7 -8 -8 -8 -8 -8 -8 -9 -10 -8 -7 -7 -7 -6 -6 -5 -5 -5 -5 -7 -7 -7
-4 -4 -4 -4 -3 -3 -3 -3 -4 -4 -3 -3 -4 -4 -5 -6 -6 -6 -7 -7 -8 -8 -8 -8 -9 -8 -9 -9 -9 -10 -9 -9 -8 -8 -7 -7 -6 -6 -6 -7 -8 -8 -9 -8

GFSNGP_925_temp_279.txt.gz
Temp
4 6 6 7 5 4 2 5 6 9 8 10 10 9 9 9 9 9 10 9 9 9 8 8 7 7 7 6 5 5 5 4 4 3 3 4 4 4 4 4 5 5 6 6
5 7 6 6 7 7 6 7 6 7 7 9 9 9 8 9 9 9 9 9 9 8 8 8 7 7 6 5 5 4 4 4 4 3 3 3 3 3 3 4 4 4 5 5
6 6 6 6 7 8 8 8 7 6 8 10 9 9 10 10 9 9 9 9 9 8 8 7 7 6 6 5 4 4 3 3 3 3 3 3 3 3 3 3 3 3 4 4
5 5 6 10 9 8 8 8 8 8 9 10 10 10 9 9 8 9 9 9 8 8 7 7 6 6 5 5 4 4 3 3 3 2 2 2 2 3 2 2 2 2 3 3
5 5 8 10 8 8 8 10 9 9 10 10 10 8 8 10 9 9 8 7 7 6 6 6 6 5 5 5 4 3 3 2 2 2 2 2 2 2 1 1 1 1 2 2
3 4 6 9 8 9 9 9 10 9 9 10 8 9 11 11 9 8 8 7 7 7 6 5 5 4 4 4 3 3 2 1 1 1 1 1 1 1 0 -0 0 0 1 1
3 4 6 8 9 9 8 9 8 8 10 9 8 9 11 8 8 8 8 7 7 6 6 5 4 3 4 3 3 2 1 1 1 1 0 0 1 0 -1 -0 0 -0 0 0
3 3 4 8 7 8 10 8 9 8 8 8 8 8 8 9 8 8 8 7 6 6 5 4 3 3 3 3 1 0 0 0 0 0 -0 0 0 -0 -1 -1 -1 -0 -0 -0
5 6 8 7 8 9 7 7 8 8 8 8 8 8 8 8 8 8 7 7 5 4 4 3 2 2 2 1 0 -0 -0 -0 0 0 -0 -0 -0 -1 -1 -1 -1 -1 -1 -1
5 8 7 7 7 7 8 7 7 7 7 7 7 7 8 8 8 7 7 6 4 4 4 3 2 1 1 0 -0 -1 -1 -1 -0 0 0 -0 -1 -1 -1 -1 -1 -1 -1 -1
7 7 7 8 7 7 8 8 7 7 7 7 7 7 7 7 7 7 6 4 3 3 2 2 1 1 0 -0 -1 -1 -1 -1 -1 -0 -0 -1 -1 -1 -2 -2 -2 -2 -2 -2
6 7 7 7 7 7 6 7 7 6 6 6 6 6 6 6 6 6 4 4 3 2 1 1 1 0 -0 -1 -1 -1 -1 -0 -0 -1 -1 -1 -1 -2 -2 -2 -2 -2 -2 -2
5 6 6 6 6 6 6 6 6 6 5 6 6 6 5 6 5 4 3 2 2 2 1 0 -0 -0 -1 -2 -2 -2 -1 -1 -1 -0 -0 -1 -1 -2 -2 -2 -2 -2 -2 -2
4 4 4 6 5 6 5 5 5 5 5 5 5 5 5 4 3 3 3 2 1 1 0 -0 -1 -1 -2 -3 -3 -2 -2 -2 -2 -1 -1 -1 -1 -2 -2 -2 -2 -2 -2 -2
4 4 4 4 4 4 5 5 5 5 5 5 4 4 3 3 3 2 1 1 1 -0 -1 -2 -2 -3 -3 -3 -3 -3 -3 -3 -2 -2 -2 -2 -2 -2 -2 -3 -2 -2 -2 -2
3 3 2 1 1 2 4 4 4 5 5 4 3 3 3 2 2 1 1 1 -0 1 -1 -2 -2 -2 -2 -3 -3 -3 -2 -3 -3 -3 -3 -2 -2 -3 -3 -2 -2 -2 -2 -2
2 1 1 1 1 1 2 3 3 3 3 3 3 2 1 1 1 1 0 -0 -1 -1 -2 -2 -2 -2 -3 -4 -4 -3 -3 -3 -5 -5 -4 -3 -3 -3 -3 -3 -2 -2 -2 -2
2 2 2 1 1 0 1 0 -0 0 0 -0 -0 -0 -1 -1 -0 1 0 -0 -1 -2 -1 -2 -2 -3 -4 -4 -3 -4 -4 -5 -4 -4 -3 -3 -3 -3 -3 -3 -2 -2 -2 -2
2 2 2 2 1 1 1 1 0 -0 0 0 1 1 1 0 -0 -0 -1 -2 -2 -3 -2 -2 -2 -3 -4 -4 -5 -5 -5 -5 -5 -4 -4 -3 -3 -3 -3 -3 -3 -2 -2 -2
1 1 1 1 1 1 0 0 0 -0 0 0 -0 -1 -1 -0 -1 -1 -2 -3 -2 -2 -2 -2 -3 -4 -4 -4 -5 -5 -5 -5 -4 -4 -4 -4 -3 -3 -3 -3 -3 -3 -3 -3
-0 0 0 0 -0 -0 -1 -0 -1 -1 0 -0 -1 -2 -2 -1 -1 -2 -3 -3 -1 -1 -2 -3 -4 -4 -5 -5 -6 -5 -5 -5 -5 -5 -5 -5 -4 -4 -4 -3 -3 -3 -3 -3
-1 -1 -1 -1 -2 -2 -1 -1 -2 -1 -1 -1 -1 -1 -2 -2 -1 -1 -1 -2 -2 -3 -3 -4 -5 -6 -6 -6 -7 -6 -6 -6 -6 -6 -6 -6 -5 -5 -4 -4 -4 -4 -3 -3
-1 -2 -2 -2 -3 -2 -2 -2 -1 -1 -2 -2 -2 -3 -3 -3 -3 -3 -2 -2 -2 -3 -4 -5 -6 -6 -6 -7 -7 -7 -7 -7 -7 -7 -6 -6 -6 -5 -5 -5 -4 -4 -4 -4
-1 -2 -3 -3 -3 -4 -3 -2 -2 -2 -2 -2 -2 -2 -3 -3 -2 -2 -2 -3 -4 -5 -5 -6 -6 -7 -7 -8 -9 -9 -9 -8 -8 -8 -7 -7 -6 -6 -6 -5 -5 -4 -4 -5
-2 -3 -3 -3 -2 -2 -3 -3 -3 -3 -3 -3 -3 -3 -3 -3 -4 -4 -5 -5 -5 -6 -6 -7 -7 -7 -8 -8 -9 -10 -9 -9 -9 -9 -8 -7 -6 -6 -6 -6 -5 -5 -5 -5
-3 -3 -3 -4 -4 -4 -4 -4 -4 -4 -4 -3 -3 -3 -4 -5 -6 -6 -6 -6 -7 -7 -7 -8 -8 -8 -9 -10 -10 -11 -10 -10 -9 -8 -8 -7 -7 -7 -7 -6 -5 -6 -7 -7
-4 -4 -4 -5 -4 -4 -4 -5 -5 -4 -4 -4 -5 -6 -6 -6 -7 -7 -7 -8 -8 -8 -9 -9 -9 -9 -10 -10 -11 -11 -11 -10 -10 -9 -9 -9 -8 -8 -7 -8 -8 -9 -9 -9

GFSNGP_925_temp_285.txt.gz
Temp
10 13 14 14 10 11 7 10 11 16 17 17 17 17 17 16 16 16 16 16 15 15 14 14 14 13 13 12 11 10 10 10 9 9 9 8 8 8 8 8 8 8 8 7
11 14 14 14 15 15 14 13 12 13 14 17 17 17 16 16 16 16 16 16 16 15 14 14 13 13 12 12 11 10 10 9 9 9 9 8 8 8 8 8 8 7 7 7
12 13 12 12 15 15 16 16 15 13 15 16 16 16 16 16 16 16 16 15 15 15 14 13 13 13 12 12 11 10 10 9 9 9 8 8 8 8 8 7 7 6 7 7
10 11 10 16 16 16 15 15 16 16 16 16 16 16 16 16 16 15 16 15 15 14 14 13 12 12 12 11 11 10 10 9 9 8 8 8 8 8 7 7 6 6 7 7
9 12 15 16 16 16 14 15 17 16 16 16 16 16 15 17 17 16 16 15 14 14 13 13 12 12 11 11 10 10 10 9 8 7 7 7 7 7 7 7 6 6 6 6
10 9 11 14 15 15 15 13 16 16 15 15 15 14 15 17 16 15 15 15 14 14 13 13 12 12 11 10 10 10 9 8 7 7 7 7 6 6 6 6 6 6 5 5
10 10 13 16 15 14 12 13 15 14 14 14 13 14 14 14 14 14 14 14 14 14 13 13 12 11 10 10 10 10 8 7 7 6 6 6 6 6 6 6 5 5 4 3
10 9 10 15 14 12 14 14 14 14 14 13 13 13 13 13 13 13 13 13 13 14 14 13 11 11 11 10 10 9 7 7 7 7 6 6 6 6 6 5 5 4 3 2
12 12 14 14 14 14 14 13 13 13 13 12 12 12 13 13 12 12 12 12 13 13 13 13 12 11 10 9 9 8 7 7 7 6 6 6 5 5 5 4 4 4 3 2
12 14 14 14 14 13 13 12 12 12 12 12 12 12 12 12 12 12 12 12 12 12 12 13 12 10 9 8 8 7 7 6 6 6 6 5 5 5 5 4 4 3 2 2
12 13 14 13 13 12 11 11 12 11 11 11 12 12 12 12 12 12 11 11 12 12 12 12 11 10 9 8 7 6 6 6 6 6 6 5 5 5 4 4 3 2 1 0
12 11 10 11 10 10 10 9 9 9 10 10 10 11 11 11 11 11 11 11 11 11 11 11 10 8 8 7 6 6 5 5 5 5 5 5 4 4 4 4 3 2 1 0
10 10 10 9 9 8 8 8 8 8 9 10 10 10 10 11 10 10 10 10 10 10 10 9 8 8 7 6 5 4 4 4 4 4 3 3 4 3 3 3 2 2 2 1
9 8 7 7 7 6 7 8 7 7 7 6 6 6 7 8 9 9 9 9 9 8 5 4 3 4 5 4 3 3 3 3 3 3 3 3 3 3 2 2 2 2 2 1
8 6 6 6 6 8 8 8 7 7 6 6 5 4 4 3 2 2 2 3 4 3 1 1 2 3 2 2 2 2 2 2 3 2 2 2 1 1 1 1 1 2 2 2
7 7 8 7 8 8 7 7 7 7 6 6 5 4 4 3 2 1 0 -0 -0 -0 -0 -1 -1 0 1 1 1 1 2 2 1 1 1 1 1 1 1 1 2 2 2 2
6 6 7 6 7 7 7 6 6 6 5 5 4 4 4 3 2 2 0 0 -0 -1 -1 -1 -1 -1 0 1 1 1 1 1 1 0 1 1 1 1 1 1 2 1 1 1
6 6 6 6 6 6 5 5 5 4 4 3 3 2 1 0 0 0 0 -0 -1 -1 -1 -0 -1 -1 -1 -1 -0 -0 -0 -0 -0 -0 0 0 1 1 1 0 0 1 1 1
6 6 5 5 5 4 4 4 3 2 2 2 2 1 0 -0 0 0 -0 -1 -1 -1 -0 0 0 -0 -0 -0 -1 -1 -1 -1 -1 -0 -0 -0 -0 -0 0 0 0 0 0 -0
5 5 5 5 4 3 2 2 1 1 1 1 0 -1 -1 -1 -1 -1 -1 -1 -0 -0 -0 0 1 1 0 0 -1 -1 -1 -1 -1 -1 -1 -1 -1 -1 -1 -1 -1 -1 -1 -1
4 4 4 3 2 2 1 0 0 0 -0 -1 -2 -2 -2 -2 -2 -2 -1 0 1 0 0 -1 -1 -1 -0 -1 -2 -2 -3 -3 -3 -2 -2 -2 -2 -2 -2 -2 -2 -2 -3 -3
3 3 2 1 0 -0 -1 -1 -1 -2 -2 -2 -2 -2 -2 -2 -1 -1 -1 -1 -1 -1 -1 -1 -2 -2 -3 -3 -4 -4 -4 -3 -3 -3 -3 -3 -3 -3 -4 -4 -4 -4 -4 -4
3 3 2 1 0 -1 -2 -2 -2 -1 -2 -2 -2 -2 -2 -2 -2 -2 -2 -2 -3 -4 -4 -4 -4 -4 -5 -6 -5 -5 -5 -5 -5 -4 -4 -4 -5 -5 -5 -5 -5 -5 -4 -4
2 1 1 0 -0 -2 -2 -0 -1 -1 -2 -2 -2 -2 -3 -3 -3 -2 -4 -4 -4 -5 -6 -5 -6 -6 -7 -7 -6 -6 -6 -5 -5 -5 -5 -5 -5 -5 -6 -6 -5 -5 -5 -5
1 0 -0 -0 0 1 0 -0 -0 -0 -1 -1 -2 -3 -3 -4 -4 -4 -5 -5 -5 -6 -6 -6 -6 -7 -7 -7 -7 -6 -6 -6 -6 -6 -6 -6 -7 -7 -6 -6 -6 -6 -6 -6
1 1 1 0 0 0 0 -0 -0 -2 -2 -2 -2 -3 -4 -4 -5 -5 -5 -6 -6 -6 -6 -7 -7 -7 -7 -7 -7 -7 -7 -7 -7 -7 -7 -7 -7 -7 -7 -7 -7 -7 -7 -7
1 0 -0 -0 -0 -0 -0 -1 -2 -3 -3 -3 -4 -4 -4 -5 -5 -6 -6 -6 -6 -7 -7 -7 -7 -7 -7 -7 -8 -8 -8 -8 -8 -8 -8 -8 -8 -8 -8 -8 -8 -8 -8 -9

GFSNGP_925_temp_288.txt.gz
Temp
10 14 15 13 11 11 7 10 11 16 16 17 17 17 17 17 17 17 17 17 16 16 15 15 14 14 14 13 13 12 11 10 10 10 9 9 9 8 8 8 8 8 7 7
12 14 15 15 16 15 13 12 12 12 13 16 17 18 17 17 17 16 16 16 17 16 16 15 14 14 13 13 12 12 11 10 10 10 9 9 8 8 8 8 7 7 7 7
13 14 13 11 14 15 16 17 16 14 15 17 16 17 16 16 16 16 16 16 16 16 15 15 14 13 13 13 12 11 11 11 10 10 9 8 8 8 8 7 7 7 7 7
11 12 11 17 18 17 16 16 17 17 17 17 17 17 17 17 16 16 17 16 16 16 15 14 14 14 13 12 12 12 11 11 10 9 8 8 8 8 7 7 7 7 6 7
10 12 14 16 17 17 16 15 17 17 17 17 17 16 16 17 16 16 16 15 15 15 14 14 14 13 13 12 12 11 11 11 10 8 8 7 7 7 7 6 6 6 6 6
10 10 11 14 16 16 16 13 16 15 15 14 14 13 14 15 15 14 14 14 14 14 14 14 14 13 13 12 11 11 11 10 9 8 7 7 7 7 6 6 6 6 6 5
10 10 13 16 16 15 12 12 14 15 14 14 13 13 13 14 14 14 14 14 14 13 13 14 14 14 13 12 11 11 11 9 8 8 7 7 7 7 6 6 6 6 5 4
10 10 10 16 15 13 14 14 14 13 13 12 12 13 13 13 13 13 13 13 13 13 13 13 13 13 13 12 11 11 10 9 8 7 7 7 7 6 6 5 6 5 4 4
12 12 15 15 15 15 14 13 12 12 12 12 12 12 13 13 13 13 13 13 13 13 13 13 13 13 12 10 9 8 9 8 8 7 7 7 7 6 6 5 5 5 4 3
12 14 15 15 15 13 12 12 12 11 10 11 10 11 11 12 12 12 12 12 12 12 12 12 12 12 12 10 9 9 8 8 7 7 7 6 6 6 5 5 5 4 4 3
13 14 14 15 12 11 11 10 9 10 9 10 10 11 11 11 11 11 11 12 12 12 11 11 12 12 11 8 7 7 8 7 7 6 6 6 5 5 5 5 5 4 3 3
12 11 10 11 10 10 9 8 9 9 8 8 8 8 8 8 7 6 6 4 5 7 9 11 10 9 8 7 7 7 7 6 6 5 5 5 4 4 4 4 3 3 3 2
10 10 10 9 10 9 8 8 9 8 8 8 7 7 6 6 5 5 4 3 2 2 2 3 4 4 2 3 4 5 5 5 4 4 3 3 3 3 3 3 2 2 2 1
9 8 8 8 7 8 9 9 9 9 8 8 7 7 6 6 5 4 3 2 2 1 1 0 0 0 0 -0 -0 -0 1 2 3 3 3 3 3 3 2 1 1 1 1 1
9 8 7 7 7 8 8 8 8 8 7 7 6 6 6 5 5 5 4 3 1 1 0 0 1 0 -0 -0 -1 -1 -0 1 2 2 1 1 1 1 1 1 1 1 1 1
8 8 8 8 8 8 8 7 7 7 6 6 5 5 4 4 3 2 2 2 2 0 -0 -1 0 1 1 -0 -1 -1 -1 0 1 0 1 1 1 1 1 1 1 1 1 1
7 6 7 7 7 7 6 6 5 5 5 4 3 3 3 2 1 1 1 1 1 -0 -0 -1 -1 -1 -0 -1 -1 -1 -1 -1 -1 -1 0 0 0 0 0 1 1 1 0 0
7 7 7 6 6 6 5 5 4 4 3 2 2 2 1 0 -0 -0 0 0 -0 -1 -1 -0 -0 -0 -1 -1 -1 -1 -1 -0 -0 -0 -0 -0 -0 0 -0 -0 -0 -0 0 -0
6 6 6 6 5 5 5 4 3 2 2 2 2 1 -0 -1 -1 -1 -1 -1 -1 -1 0 1 1 1 0 -1 -0 -0 -1 -1 -1 -1 -1 -1 -1 -1 -1 -1 -1 -1 -1 -1
5 5 4 5 5 4 3 2 2 1 1 1 -0 -1 -2 -2 -2 -2 -2 -2 -2 -1 -0 -1 -1 -0 -1 -1 -1 -2 -1 -2 -2 -2 -2 -2 -2 -2 -2 -2 -2 -2 -2 -2
4 4 4 3 3 2 2 1 0 -0 -0 -1 -2 -2 -2 -2 -2 -2 -2 -1 -1 -1 -2 -2 -2 -2 -2 -3 -3 -3 -3 -3 -3 -3 -3 -3 -3 -3 -3 -3 -3 -3 -4 -4
3 3 2 2 2 1 0 0 -0 -1 -1 -2 -2 -2 -2 -2 -2 -2 -2 -2 -3 -3 -4 -4 -4 -4 -5 -5 -5 -5 -4 -4 -4 -4 -4 -4 -4 -4 -4 -4 -4 -4 -4 -4
2 2 2 1 0 -0 -0 -0 -0 -1 -1 -1 -1 -2 -2 -2 -2 -2 -2 -3 -4 -5 -5 -5 -5 -5 -6 -6 -6 -6 -6 -6 -6 -5 -5 -5 -5 -5 -5 -5 -5 -5 -5 -5
1 1 1 0 -0 -1 -1 -0 0 -0 -0 -1 -1 -2 -3 -4 -3 -3 -4 -4 -5 -5 -6 -6 -6 -6 -6 -6 -6 -6 -6 -6 -6 -6 -6 -6 -6 -6 -6 -6 -6 -6 -6 -6
1 1 1 1 0 0 -1 0 0 -0 -1 -1 -2 -2 -3 -4 -4 -4 -5 -5 -5 -6 -6 -6 -6 -7 -7 -7 -7 -7 -6 -7 -7 -7 -7 -7 -7 -7 -7 -7 -7 -7 -7 -7
1 1 1 1 0 -0 -1 -1 -1 -1 -1 -2 -2 -3 -4 -4 -4 -5 -5 -6 -6 -6 -7 -7 -7 -7 -7 -7 -7 -7 -8 -8 -8 -8 -8 -8 -8 -8 -8 -8 -8 -8 -8 -8
1 0 0 -0 -0 -0 -1 -1 -1 -2 -2 -3 -3 -3 -4 -4 -5 -5 -6 -6 -7 -7 -8 -7 -8 -8 -8 -7 -8 -8 -8 -8 -8 -8 -8 -8 -8 -8 -9 -9 -9 -9 -10 -10

GFSNGP_925_temp_291.txt.gz
Temp
7 12 11 10 8 7 4 6 7 11 11 12 12 12 14 16 15 15 15 15 13 13 14 15 14 14 14 13 13 12 11 11 11 10 10 9 9 8 8 8 8 7 7 6
9 12 13 13 11 10 9 10 10 10 10 12 13 13 15 15 15 14 14 14 14 15 15 15 15 14 13 13 13 12 12 11 11 10 10 9 9 8 8 8 7 7 7 6
9 11 10 8 10 12 12 11 10 9 10 12 13 14 15 15 14 14 14 13 13 15 15 14 14 14 14 13 13 12 12 11 11 10 10 9 8 8 7 7 7 6 6 6
5 10 5 12 17 15 14 14 13 13 14 13 13 12 13 12 11 12 12 12 12 13 14 14 14 14 14 13 13 12 12 11 11 10 9 9 8 7 7 7 6 6 6 6
4 7 10 15 14 14 14 13 13 12 12 12 12 11 10 12 12 11 12 13 13 13 13 13 13 13 13 13 13 12 11 11 11 10 9 8 8 7 7 7 6 6 6 6
5 5 6 12 14 14 15 10 12 11 10 10 10 6 8 10 11 12 12 12 12 13 12 12 13 13 13 12 12 12 12 10 11 10 9 8 7 7 7 6 6 6 6 5
4 5 9 14 13 14 11 8 10 10 9 8 8 8 8 11 11 12 12 12 12 12 12 12 12 12 12 12 12 12 12 11 10 9 8 8 7 7 7 6 6 5 5 5
5 4 6 14 14 12 9 9 9 8 8 8 8 8 9 10 10 11 11 11 12 12 12 12 12 12 11 11 12 12 11 10 9 8 8 8 7 7 7 6 6 5 5 4
7 7 10 14 9 9 9 8 7 7 8 8 7 8 8 8 8 6 6 5 5 6 7 8 9 10 10 10 11 11 10 8 7 8 8 7 7 6 6 6 5 5 5 4
9 12 13 10 9 9 8 7 8 8 7 7 6 6 6 6 6 5 5 4 4 3 4 4 3 5 4 6 9 8 7 8 7 7 7 6 6 6 6 5 5 4 4 4
9 12 9 8 8 7 7 8 8 8 8 7 6 6 6 5 5 4 4 3 3 2 2 2 1 2 1 1 2 4 5 5 4 2 5 6 5 5 5 4 4 4 3 3
6 8 7 7 7 8 7 7 8 8 7 8 7 6 6 5 5 5 4 3 2 2 1 1 1 0 0 1 0 -0 0 2 3 3 3 3 3 3 4 3 3 3 3 2
7 7 7 7 7 8 7 8 8 8 8 7 7 6 5 5 5 4 4 3 3 2 1 1 0 0 1 -0 0 1 0 -0 -0 -0 -0 1 2 2 2 2 2 2 2 1
7 7 5 6 6 7 7 8 8 7 6 6 5 5 4 4 3 3 2 2 2 2 1 0 -0 -0 1 1 0 -0 -0 -0 -0 -1 -1 -1 -0 0 1 0 0 1 1 1
7 7 6 7 7 7 7 6 6 5 5 5 4 3 3 3 2 2 1 1 1 1 0 0 -0 -1 -1 -1 -1 -1 -1 -1 -1 -1 -1 -1 -1 -1 -1 -1 -0 -0 -0 0
7 7 7 6 6 6 6 5 4 4 4 3 2 2 2 2 1 1 0 -0 -1 -1 -1 -1 -1 -1 -1 -1 -1 -1 -1 -1 -1 -1 -1 -1 -1 -1 -1 -1 -1 -1 -1 -1
5 5 5 5 5 5 5 5 4 4 3 2 1 1 1 1 -0 -1 -1 -2 -2 -2 -2 -2 -2 -1 -1 -1 -1 -1 -1 -1 -1 -1 -1 -1 -1 -1 -1 -1 -1 -1 -1 -1
6 6 6 5 4 4 4 4 3 2 2 1 1 1 0 -1 -2 -2 -2 -2 -3 -3 -3 -2 -2 -2 -1 -1 -1 -1 -1 -1 -1 -1 -1 -1 -1 -1 -2 -2 -2 -2 -2 -2
4 4 4 4 4 3 3 2 2 2 1 1 0 -0 -1 -2 -2 -3 -3 -3 -3 -2 -2 -2 -2 -3 -3 -3 -3 -3 -2 -2 -2 -2 -2 -3 -2 -3 -3 -3 -3 -3 -3 -3
3 3 3 3 3 2 2 2 1 1 0 -0 -0 -1 -2 -2 -2 -3 -3 -3 -3 -3 -4 -4 -4 -4 -4 -5 -5 -5 -5 -4 -4 -4 -4 -4 -4 -4 -4 -4 -4 -4 -4 -4
2 2 2 1 1 1 1 0 0 -1 -0 -1 -1 -1 -2 -2 -3 -3 -3 -3 -3 -4 -4 -5 -5 -5 -6 -6 -6 -6 -6 -6 -5 -5 -5 -5 -5 -5 -5 -5 -5 -5 -5 -5
1 1 1 1 1 1 1 0 -0 -1 -1 -1 -0 -1 -2 -3 -3 -3 -3 -3 -4 -4 -5 -6 -6 -6 -6 -6 -7 -7 -7 -7 -7 -6 -6 -6 -6 -6 -6 -6 -6 -6 -6 -6
1 1 1 1 1 0 0 -0 -1 -1 -1 -0 -1 -1 -2 -2 -3 -4 -4 -4 -5 -5 -5 -6 -6 -6 -6 -7 -7 -7 -7 -7 -7 -7 -7 -7 -7 -7 -7 -7 -7 -7 -7 -7
1 1 1 1 0 0 -0 -0 -0 -1 -1 -0 -1 -1 -2 -3 -3 -4 -4 -5 -5 -5 -6 -6 -7 -7 -7 -7 -7 -7 -7 -7 -8 -8 -8 -8 -8 -8 -8 -8 -8 -8 -8 -8
1 1 1 0 -0 -1 -1 -1 -1 -1 -1 -1 -1 -2 -3 -3 -4 -4 -5 -5 -6 -6 -7 -7 -8 -8 -8 -8 -8 -8 -8 -8 -8 -8 -8 -8 -8 -8 -8 -8 -8 -8 -9 -9
0 -0 0 -0 -1 -1 -1 -1 -2 -2 -1 -2 -3 -3 -3 -4 -4 -4 -5 -6 -6 -7 -8 -8 -9 -9 -9 -9 -9 -9 -9 -9 -9 -9 -9 -9 -9 -9 -9 -9 -10 -10 -10 -10
-0 -1 -1 -1 -1 -2 -2 -2 -2 -3 -2 -3 -4 -3 -4 -4 -5 -5 -6 -6 -7 -8 -9 -9 -10 -10 -10 -9 -10 -10 -10 -10 -10 -10 -10 -10 -10 -10 -10 -10 -10 -11 -11 -12

GFSNGP_925_temp_297.txt.gz
Temp
6 10 10 9 7 5 4 6 9 12 10 11 11 11 11 10 9 9 9 9 9 10 11 12 12 12 12 12 12 13 12 12 12 12 12 11 11 11 10 9 9 8 7 7
9 10 10 11 10 7 7 9 7 9 9 9 10 9 8 9 9 9 9 9 9 10 11 11 11 12 12 12 12 12 12 12 11 11 12 11 11 11 10 9 9 8 8 7
8 10 10 8 9 8 8 9 9 8 9 10 8 8 8 8 8 9 9 9 9 9 9 8 8 8 8 9 10 10 11 11 11 11 10 10 11 10 10 10 9 8 7 7
4 9 6 11 12 11 10 10 9 10 10 9 8 7 7 7 7 7 7 6 6 5 6 6 5 6 7 7 8 8 8 7 8 8 9 9 9 8 10 9 8 8 7 7
4 6 10 13 12 10 11 10 9 8 9 9 8 7 6 6 6 5 4 4 4 4 4 4 4 4 4 5 5 5 4 4 5 6 7 8 8 7 9 9 8 7 7 6
3 5 6 10 12 12 11 9 9 7 7 8 7 7 5 5 5 4 4 3 3 3 3 3 3 3 3 3 2 2 2 2 3 4 5 6 6 7 7 8 8 7 7 6
2 4 7 10 11 13 10 8 7 7 6 6 5 5 5 5 5 4 4 3 3 3 2 2 2 2 2 2 2 1 1 1 2 2 2 3 4 5 6 5 6 6 5 4
2 1 7 10 12 11 7 6 6 6 5 4 4 4 5 5 4 4 4 3 3 2 2 2 2 1 1 1 1 0 -0 -0 0 1 1 2 2 3 4 5 6 5 4 3
6 6 8 6 8 6 6 5 5 5 5 4 4 4 5 4 4 4 3 3 2 2 2 2 2 1 1 1 0 0 -0 -1 -1 -1 -1 -0 1 1 1 0 2 3 3 2
7 7 6 6 5 6 6 5 5 5 5 5 4 4 5 4 4 3 3 3 2 2 1 1 1 1 1 0 -0 -1 -1 -1 -1 -1 -1 -1 -1 -1 -1 -0 -0 -0 -0 -0
6 6 6 6 6 6 6 6 6 6 6 5 5 4 3 3 3 3 2 2 1 1 0 0 0 -0 -1 -1 -1 -1 -2 -2 -2 -1 -1 -1 -1 -1 -1 -1 -1 -1 -1 -1
7 6 5 5 5 6 6 6 6 4 4 4 4 3 3 3 3 2 2 1 1 0 -0 -1 -1 -2 -2 -2 -3 -3 -2 -2 -2 -2 -1 -1 -1 -1 -1 -1 -1 -1 -1 -1
5 5 5 5 5 6 4 4 4 4 4 3 3 2 2 2 1 1 1 0 -0 -1 -1 -2 -3 -3 -3 -3 -3 -3 -3 -2 -2 -2 -2 -2 -2 -2 -2 -1 -1 -1 -1 -2
5 5 4 5 3 5 5 5 4 4 4 3 2 1 1 1 1 0 0 -0 -1 -2 -2 -2 -3 -3 -3 -4 -4 -4 -3 -3 -3 -3 -2 -2 -2 -2 -2 -2 -2 -2 -1 -2
4 5 4 4 4 4 4 4 3 2 2 1 1 1 1 0 -0 -0 -1 -1 -2 -2 -3 -4 -4 -4 -4 -4 -5 -4 -4 -4 -4 -4 -4 -3 -3 -2 -2 -2 -2 -2 -2 -2
4 4 3 2 2 2 2 1 0 1 1 1 1 1 1 0 -1 -1 -1 -1 -3 -4 -4 -4 -4 -4 -4 -5 -5 -5 -5 -6 -6 -6 -5 -4 -4 -4 -4 -2 -2 -2 -3 -3
2 2 1 1 0 0 1 1 1 0 0 0 0 0 -1 -1 -1 -1 -1 -1 -3 -3 -3 -4 -4 -4 -5 -5 -6 -6 -6 -7 -7 -7 -7 -6 -5 -5 -5 -4 -4 -4 -4 -4
2 2 1 1 -0 -0 -0 0 0 -0 -1 -0 -1 -1 -1 -2 -2 -2 -2 -2 -3 -3 -4 -4 -4 -5 -5 -6 -6 -7 -7 -7 -8 -8 -7 -7 -7 -7 -6 -6 -6 -5 -5 -5
1 1 1 0 0 0 -0 -0 -0 -0 -0 -1 -1 -2 -3 -3 -2 -3 -3 -3 -4 -5 -4 -4 -4 -5 -6 -7 -7 -8 -8 -8 -8 -8 -8 -7 -7 -7 -7 -7 -7 -7 -6 -6
1 1 1 0 0 0 -0 -0 -1 -1 -1 -1 -2 -2 -3 -2 -2 -2 -3 -3 -4 -4 -4 -4 -5 -6 -7 -7 -8 -8 -8 -8 -8 -8 -8 -8 -8 -8 -8 -7 -7 -7 -7 -7
0 0 1 0 0 0 -0 -1 -1 -2 -2 -2 -2 -3 -3 -2 -2 -2 -4 -5 -3 -4 -4 -5 -6 -6 -7 -8 -8 -9 -9 -9 -9 -9 -9 -8 -9 -9 -9 -9 -9 -9 -9 -9
0 0 -0 -0 -1 -1 -1 -1 -1 -2 -2 -2 -2 -2 -3 -4 -4 -3 -3 -4 -4 -4 -5 -5 -6 -7 -8 -8 -9 -10 -10 -10 -10 -10 -9 -9 -10 -10 -10 -10 -9 -9 -9 -9
-0 -1 -0 -0 -1 -1 -1 -1 -2 -2 -2 -3 -3 -3 -4 -4 -5 -5 -4 -4 -5 -5 -6 -6 -7 -8 -8 -9 -10 -11 -11 -11 -10 -10 -10 -11 -11 -11 -11 -10 -10 -10 -10 -10
-0 -0 -0 -1 -1 -1 -2 -2 -3 -3 -3 -3 -4 -4 -5 -5 -5 -5 -5 -5 -5 -6 -7 -7 -8 -9 -9 -10 -11 -11 -12 -11 -11 -12 -12 -12 -12 -11 -11 -12 -11 -11 -11 -11
-0 -0 -1 -1 -2 -2 -3 -3 -4 -4 -5 -5 -5 -5 -5 -5 -6 -5 -5 -6 -6 -7 -8 -8 -9 -9 -11 -11 -12 -12 -12 -13 -13 -13 -13 -13 -13 -13 -12 -12 -12 -13 -13 -12
-1 -1 -1 -2 -3 -3 -3 -4 -5 -5 -6 -6 -6 -6 -6 -5 -5 -5 -6 -7 -8 -8 -9 -10 -10 -11 -11 -12 -13 -13 -14 -14 -14 -13 -14 -14 -14 -13 -14 -15 -14 -14 -14 -14
-1 -2 -2 -3 -3 -3 -4 -5 -5 -6 -6 -7 -7 -6 -6 -6 -6 -7 -7 -8 -9 -10 -10 -11 -11 -12 -13 -14 -14 -14 -15 -14 -15 -15 -15 -15 -16 -16 -16 -15 -16 -15 -16 -16

GFSNGP_925_temp_303.txt.gz
Temp
8 10 11 11 9 7 7 11 15 15 14 14 13 12 11 10 10 10 9 8 8 7 6 6 5 5 5 5 5 5 5 5 5 4 5 5 5 5 5 5 5 6 5 6
9 10 10 12 11 10 10 11 11 11 12 12 10 10 10 10 9 9 8 7 6 6 5 5 4 4 4 4 4 4 4 4 4 3 3 3 3 4 4 4 5 5 5 5
11 10 11 12 12 11 10 10 12 12 14 10 9 10 9 9 8 7 7 6 5 5 4 4 4 3 3 3 3 3 3 3 3 2 2 2 2 3 3 3 3 3 4 4
9 10 13 15 12 12 12 11 11 11 10 11 10 8 8 8 7 6 6 5 4 4 4 3 3 3 3 3 3 2 2 2 2 2 1 1 1 1 2 2 2 2 2 3
10 11 13 12 11 12 12 14 11 11 9 9 8 7 6 6 6 5 4 4 3 3 3 3 3 2 2 2 2 2 2 1 1 1 1 1 1 0 0 0 -0 0 1 1
7 11 13 13 12 12 12 14 10 10 9 8 8 10 9 6 5 4 4 4 3 3 2 2 2 2 2 2 1 1 1 0 0 0 -0 -0 -1 -0 -1 -1 -1 -1 -1 -1
6 10 12 11 11 12 13 13 9 10 9 8 9 8 6 5 5 4 4 3 3 2 2 2 2 1 1 1 1 0 -0 -0 -1 -1 -1 -1 -1 -1 -1 -1 -1 -1 -0 -1
6 9 11 10 11 12 11 8 9 9 8 8 6 5 5 5 5 4 4 3 3 2 2 2 1 1 1 0 -0 -1 -1 -2 -2 -2 -1 -1 -1 -1 -1 -1 -1 -1 -0 -0
10 11 8 8 8 7 8 9 8 8 7 6 6 6 6 5 4 4 3 3 2 2 2 1 0 -0 -0 -1 -2 -2 -2 -2 -2 -2 -2 -1 -2 -1 -2 -2 -2 -2 -1 -1
9 8 7 7 6 7 8 8 7 7 6 6 6 6 5 4 4 3 2 2 2 2 1 0 -0 -1 -1 -2 -2 -2 -2 -2 -2 -2 -3 -3 -2 -2 -2 -2 -2 -2 -2 -2
7 6 7 7 7 7 7 6 6 5 5 5 5 5 4 3 3 2 2 2 1 1 0 -0 -1 -1 -2 -2 -3 -3 -3 -3 -3 -3 -3 -3 -3 -4 -4 -4 -4 -3 -3 -3
10 8 8 7 6 6 6 6 5 5 4 4 4 3 2 2 2 1 1 1 1 0 -0 -1 -2 -2 -2 -3 -3 -3 -3 -3 -4 -4 -4 -4 -4 -5 -5 -5 -5 -4 -4 -4
8 7 7 6 5 5 5 4 4 4 4 3 2 2 1 1 1 0 0 -0 -0 -1 -1 -2 -2 -2 -3 -3 -4 -4 -4 -4 -4 -4 -4 -5 -5 -5 -5 -5 -5 -5 -5 -5
5 6 5 5 4 4 3 3 2 2 2 1 1 1 0 0 -0 -0 -0 -1 -1 -1 -2 -2 -2 -3 -3 -4 -4 -4 -4 -5 -5 -5 -5 -6 -6 -6 -6 -6 -5 -5 -6 -6
4 5 4 3 2 2 2 2 2 1 1 1 0 -0 -0 -0 -1 -1 -1 -2 -2 -2 -2 -3 -3 -3 -4 -4 -4 -4 -5 -5 -5 -6 -6 -6 -7 -6 -6 -6 -6 -6 -6 -6
4 3 3 2 2 2 1 1 1 1 0 -0 -0 -1 -1 -1 -2 -2 -2 -2 -3 -2 -3 -3 -4 -3 -4 -4 -4 -5 -5 -6 -6 -6 -7 -6 -6 -6 -6 -6 -6 -6 -6 -5
3 2 2 2 1 1 0 0 -0 -0 -1 -1 -1 -2 -2 -2 -3 -2 -2 -3 -3 -4 -4 -4 -4 -4 -4 -5 -5 -6 -6 -6 -7 -7 -7 -7 -7 -7 -7 -7 -6 -6 -6 -6
2 2 2 1 1 0 -0 -1 -1 -1 -1 -2 -2 -3 -3 -3 -4 -4 -4 -4 -4 -4 -4 -4 -4 -4 -4 -5 -6 -6 -7 -7 -7 -7 -8 -8 -8 -7 -7 -7 -7 -6 -6 -7
1 0 -0 -0 -0 -1 -1 -1 -2 -2 -2 -3 -3 -4 -4 -4 -5 -5 -5 -5 -6 -5 -4 -5 -5 -5 -5 -6 -7 -7 -8 -8 -8 -8 -8 -8 -7 -7 -7 -7 -7 -7 -8 -8
-0 -1 -1 -1 -1 -1 -1 -2 -2 -2 -3 -3 -4 -4 -4 -4 -5 -5 -6 -7 -6 -5 -5 -5 -6 -6 -6 -7 -8 -9 -8 -8 -8 -8 -8 -9 -9 -8 -8 -8 -9 -9 -9 -9
-1 -1 -1 -1 -2 -2 -2 -2 -3 -3 -3 -4 -4 -5 -5 -5 -6 -6 -7 -6 -5 -5 -6 -6 -7 -7 -8 -9 -9 -9 -9 -9 -9 -9 -10 -10 -10 -9 -9 -10 -10 -10 -10 -10
-1 -1 -1 -1 -2 -2 -2 -2 -3 -3 -4 -4 -4 -5 -6 -6 -6 -7 -6 -6 -6 -6 -7 -7 -8 -9 -9 -9 -10 -10 -10 -11 -11 -11 -11 -11 -11 -11 -12 -11 -11 -11 -11 -12
-1 -1 -1 -2 -2 -2 -3 -3 -3 -4 -4 -4 -5 -6 -7 -7 -7 -7 -6 -6 -7 -7 -8 -9 -9 -9 -9 -10 -12 -12 -12 -12 -12 -12 -12 -12 -12 -12 -12 -12 -12 -13 -13 -13
-1 -1 -2 -2 -3 -3 -3 -3 -4 -4 -4 -5 -6 -6 -7 -7 -6 -6 -7 -7 -7 -8 -8 -9 -9 -10 -10 -11 -13 -14 -14 -13 -13 -13 -13 -14 -14 -13 -13 -14 -14 -14 -14 -15
-1 -2 -2 -3 -3 -4 -4 -5 -5 -5 -6 -6 -6 -7 -7 -7 -7 -7 -8 -8 -9 -9 -9 -10 -10 -11 -12 -13 -15 -15 -15 -15 -14 -15 -15 -14 -15 -15 -15 -15 -16 -16 -16 -16
-2 -3 -3 -4 -4 -5 -6 -6 -6 -7 -7 -7 -8 -8 -8 -8 -8 -8 -9 -9 -10 -10 -11 -11 -12 -12 -14 -15 -16 -16 -16 -16 -16 -16 -16 -16 -16 -16 -17 -17 -17 -17 -17 -17
-3 -3 -4 -5 -5 -6 -7 -7 -8 -8 -8 -9 -9 -9 -9 -9 -9 -10 -10 -11 -11 -11 -12 -12 -13 -14 -15 -16 -17 -17 -17 -17 -17 -18 -18 -18 -18 -18 -18 -18 -18 -18 -18 -18

GFSNGP_925_temp_306.txt.gz
Temp
12 15 15 16 14 13 10 16 18 22 21 21 18 17 16 16 15 14 13 12 12 11 10 9 8 8 8 7 7 7 7 7 7 6 6 6 6 5 6 6 6 6 6 7
13 13 14 15 16 15 15 17 18 19 18 18 18 16 15 14 14 13 12 11 10 9 9 8 8 7 7 6 6 6 6 6 6 5 5 5 5 4 4 4 4 5 5 5
16 14 14 14 17 16 17 16 17 17 19 17 15 15 15 14 13 12 11 10 9 8 8 7 7 6 6 6 6 5 5 5 5 5 4 4 4 4 4 3 3 3 3 3
12 14 14 18 16 17 17 17 16 16 16 16 15 15 13 13 12 11 10 9 8 8 7 6 6 6 5 5 5 5 5 4 4 4 3 3 3 3 3 2 2 2 2 2
13 15 18 18 14 14 15 18 17 16 15 14 13 12 10 11 11 10 9 7 7 6 6 6 5 5 5 5 5 5 4 3 3 3 2 2 2 2 2 2 2 1 1 1
12 14 16 16 15 15 16 17 15 16 14 13 11 13 13 10 9 8 7 7 6 5 5 5 4 4 4 5 4 4 3 2 2 2 1 1 1 1 2 2 2 2 2 2
13 15 17 15 15 15 16 16 14 14 13 12 13 13 11 9 8 8 7 6 5 5 5 5 4 4 4 4 4 3 2 1 1 1 1 1 1 1 1 2 2 2 1 2
12 12 14 15 14 15 14 12 13 13 13 12 10 9 9 8 8 7 7 6 6 6 5 5 4 3 3 3 2 2 1 1 1 1 1 1 1 1 1 1 1 1 0 1
14 15 12 13 13 12 12 13 12 12 12 11 10 9 9 8 7 7 6 6 5 5 5 5 4 3 2 2 1 1 1 1 1 1 0 0 0 0 0 1 -0 -1 -1 -0
12 12 13 11 11 11 12 12 11 11 11 10 10 9 8 8 7 6 5 5 5 4 4 4 3 2 2 1 1 0 0 0 0 0 -0 -1 -1 -0 -0 -1 -1 -2 -2 -2
12 11 10 10 11 11 11 10 9 9 9 9 8 8 7 6 6 5 5 5 4 4 3 3 2 2 1 1 0 0 -0 -0 -0 -0 -1 -1 -1 -1 -2 -2 -3 -4 -4 -4
15 14 13 11 10 10 10 9 8 8 7 7 7 6 5 5 5 4 4 3 3 3 3 2 2 1 1 1 -0 -1 -1 -0 -1 -1 -2 -1 -1 -2 -2 -3 -4 -5 -5 -5
12 12 12 10 9 9 8 7 7 7 6 5 5 4 4 4 3 2 3 3 2 2 2 2 1 1 1 0 -1 -1 -1 -1 -2 -2 -2 -2 -2 -2 -2 -3 -3 -4 -4 -4
10 9 7 8 7 7 6 5 5 5 4 4 3 3 3 3 3 2 2 1 1 1 1 0 0 0 0 -1 -1 -2 -2 -2 -2 -2 -2 -3 -3 -3 -3 -3 -3 -3 -3 -4
8 9 8 6 6 6 5 5 5 5 4 3 3 2 2 2 2 1 1 1 1 0 0 0 -0 -1 -1 -1 -2 -2 -3 -3 -2 -3 -3 -3 -3 -3 -3 -3 -3 -3 -3 -4
7 7 6 6 6 5 5 5 4 4 3 2 2 2 1 1 1 1 0 0 -0 -1 -1 -2 -2 -1 -1 -2 -3 -3 -3 -4 -4 -3 -3 -3 -3 -4 -4 -4 -4 -4 -3 -3
6 5 5 4 4 4 4 3 3 2 2 2 1 0 0 -0 -1 -0 -1 -2 -2 -3 -3 -2 -2 -2 -3 -4 -4 -4 -4 -4 -4 -4 -4 -4 -4 -4 -4 -5 -4 -4 -4 -4
6 5 5 4 4 3 2 2 2 1 1 -0 -1 -2 -3 -3 -3 -2 -3 -3 -4 -5 -3 -2 -3 -4 -3 -4 -5 -5 -5 -4 -4 -4 -4 -5 -5 -5 -5 -4 -4 -4 -4 -5
4 4 3 3 3 2 2 1 1 0 -1 -1 -2 -3 -3 -4 -3 -4 -4 -5 -5 -3 -3 -4 -5 -4 -5 -4 -6 -6 -6 -5 -5 -5 -5 -5 -5 -5 -5 -5 -5 -5 -6 -6
3 2 2 2 1 1 1 0 -0 -0 -1 -1 -4 -4 -4 -5 -5 -6 -6 -5 -4 -4 -4 -4 -5 -5 -5 -5 -7 -7 -6 -6 -6 -6 -6 -7 -7 -6 -7 -7 -7 -7 -7 -7
2 2 1 1 0 -0 -2 -2 -2 -2 -3 -4 -4 -5 -6 -6 -6 -6 -5 -4 -4 -5 -5 -6 -6 -6 -7 -8 -9 -7 -7 -7 -7 -7 -8 -8 -8 -8 -8 -8 -8 -8 -9 -9
1 -1 -1 -1 -1 -2 -2 -2 -2 -3 -4 -4 -5 -5 -6 -5 -4 -5 -5 -5 -5 -6 -7 -6 -6 -8 -9 -9 -9 -8 -8 -9 -9 -9 -9 -9 -9 -9 -9 -9 -10 -10 -10 -11
-0 -1 -2 -2 -2 -3 -3 -3 -4 -4 -4 -5 -5 -6 -6 -6 -5 -5 -5 -5 -6 -8 -8 -7 -8 -9 -9 -11 -10 -10 -10 -10 -10 -10 -10 -10 -10 -11 -11 -11 -11 -12 -12 -12
0 -1 -2 -2 -3 -3 -3 -4 -4 -4 -5 -5 -4 -6 -6 -6 -6 -5 -5 -7 -8 -9 -9 -9 -11 -11 -11 -12 -11 -11 -12 -12 -12 -11 -12 -12 -12 -13 -13 -13 -13 -13 -13 -13
-1 -2 -2 -3 -2 -2 -3 -3 -3 -3 -4 -4 -5 -5 -6 -6 -7 -7 -8 -9 -10 -10 -10 -11 -12 -13 -13 -13 -12 -13 -13 -13 -13 -13 -13 -13 -14 -14 -14 -14 -14 -14 -15 -15
-1 -1 -1 -2 -2 -3 -3 -3 -4 -4 -5 -5 -5 -6 -7 -8 -8 -9 -9 -10 -10 -11 -11 -12 -13 -14 -13 -13 -14 -14 -14 -14 -14 -14 -15 -15 -15 -15 -15 -15 -15 -15 -16 -16
-2 -2 -2 -3 -3 -4 -4 -5 -5 -6 -6 -6 -7 -7 -8 -8 -9 -9 -10 -10 -11 -12 -13 -13 -13 -14 -14 -15 -15 -15 -15 -15 -15 -16 -16 -16 -16 -16 -16 -16 -16 -17 -16 -16

GFSNGP_925_temp_312.txt.gz
Temp
17 19 19 19 17 15 11 17 18 22 24 25 23 22 21 21 20 20 19 18 16 15 13 12 12 11 10 10 9 9 8 8 8 8 7 7 6 6 5 5 5 4 4 4
17 20 20 19 21 19 17 17 18 20 20 24 23 22 21 20 20 19 18 17 16 14 13 12 11 10 10 9 9 8 8 8 8 7 7 6 5 5 5 4 4 4 4 4
17 19 19 15 18 19 20 19 18 17 20 23 22 20 19 18 18 17 16 15 14 13 12 11 10 9 9 8 8 8 8 8 7 7 6 5 5 4 4 4 4 4 4 3
15 16 15 20 21 21 20 21 21 21 21 21 21 19 18 18 17 16 15 14 13 12 11 10 9 8 8 7 7 7 7 7 7 5 5 4 4 4 4 3 3 3 3 3
13 16 19 20 20 19 19 20 22 21 21 20 19 18 17 17 17 15 14 12 10 9 9 9 8 8 7 7 7 7 7 6 5 5 4 4 4 4 3 3 2 2 3 2
15 15 16 19 19 19 20 17 19 20 20 18 16 14 15 16 15 13 11 10 10 9 9 8 8 8 7 7 7 7 6 5 5 4 4 4 3 3 3 2 2 2 2 2
14 15 18 19 19 19 17 16 17 19 17 16 15 14 15 14 12 11 10 9 9 9 8 8 8 8 7 7 7 6 5 5 4 4 4 3 3 3 2 2 2 1 1 0
14 12 14 19 18 17 16 17 17 17 16 14 13 13 12 12 11 11 10 9 9 9 8 8 8 7 7 6 6 5 5 4 4 3 3 3 3 2 2 1 1 1 0 -0
16 16 17 18 16 16 17 16 17 16 14 13 12 12 11 11 11 10 10 9 9 8 8 8 7 6 6 6 5 5 4 4 4 3 3 2 2 1 1 1 1 -0 -1 -1
16 17 17 16 15 16 16 16 16 15 14 13 11 11 11 11 10 10 9 9 8 8 7 6 6 6 5 5 5 4 4 4 3 3 2 1 1 1 0 0 -0 -1 -1 -2
16 17 15 15 15 16 15 14 14 13 13 12 12 11 11 10 9 8 8 7 7 6 6 5 5 5 4 4 4 4 3 3 3 2 1 1 0 -0 -0 -1 -1 -1 -2 -2
16 17 16 15 15 14 13 13 13 12 12 11 11 10 9 8 8 7 6 6 6 5 5 4 4 4 3 3 2 1 1 2 2 0 -0 -1 -1 -1 -1 -1 -1 -1 -2 -2
16 16 15 14 14 13 12 11 11 10 9 9 8 7 7 7 6 5 5 5 4 4 4 3 3 3 2 1 0 1 1 1 -0 -1 -1 -1 -1 -1 -1 -2 -2 -2 -2 -2
14 13 12 13 12 11 11 10 9 8 8 7 6 6 6 5 5 5 4 4 3 3 2 2 1 1 -0 -0 0 0 -0 -1 -1 -2 -2 -2 -2 -2 -2 -2 -2 -2 -3 -3
13 13 12 11 10 10 9 9 8 7 7 6 5 5 4 4 4 3 3 3 2 1 1 0 -1 -1 -1 -1 -1 -1 -2 -2 -2 -2 -3 -3 -3 -3 -3 -3 -3 -3 -3 -3
13 11 10 10 10 9 9 9 7 7 6 5 5 4 3 3 2 2 1 1 -0 -0 -1 -2 -2 -1 -2 -2 -2 -2 -3 -3 -3 -3 -4 -3 -3 -3 -3 -4 -4 -4 -3 -3
10 9 9 9 9 9 8 7 6 6 5 4 3 2 1 -0 -0 -0 -1 -1 -2 -3 -3 -3 -2 -3 -3 -3 -3 -4 -4 -4 -4 -4 -4 -4 -4 -4 -4 -4 -4 -4 -4 -4
10 10 10 9 8 7 6 5 5 4 3 1 -1 -1 -1 -2 -2 -2 -2 -3 -3 -3 -2 -1 -3 -3 -3 -3 -5 -5 -5 -5 -5 -5 -5 -5 -5 -5 -5 -5 -5 -5 -5 -5
9 9 8 7 6 5 5 5 4 2 2 -0 -1 -2 -2 -3 -3 -4 -4 -4 -4 -2 -2 -3 -4 -4 -3 -4 -6 -7 -7 -6 -6 -6 -5 -6 -6 -6 -6 -7 -6 -7 -7 -7
8 7 6 6 5 4 4 3 3 2 1 -1 -2 -3 -3 -3 -4 -4 -4 -4 -3 -2 -4 -4 -5 -5 -6 -6 -7 -8 -8 -7 -7 -7 -7 -7 -7 -8 -8 -8 -8 -9 -9 -9
5 5 5 4 3 1 1 0 0 -0 -2 -3 -3 -4 -4 -4 -4 -3 -3 -3 -3 -5 -6 -6 -6 -7 -8 -8 -9 -9 -9 -8 -8 -8 -9 -9 -9 -9 -10 -10 -10 -10 -11 -11
3 1 2 1 -0 -1 -0 -0 -2 -3 -3 -4 -4 -4 -4 -4 -3 -3 -3 -4 -5 -6 -7 -7 -7 -8 -9 -9 -10 -10 -10 -10 -10 -10 -10 -10 -11 -11 -11 -11 -12 -12 -12 -12
-0 -0 -1 -1 -2 -2 -2 -2 -3 -3 -3 -3 -3 -4 -4 -4 -4 -4 -5 -6 -7 -7 -8 -8 -9 -9 -10 -11 -11 -10 -11 -11 -11 -11 -11 -12 -12 -12 -13 -13 -13 -13 -13 -13
0 -1 -2 -2 -2 -2 -2 -2 -2 -2 -2 -2 -3 -3 -4 -4 -5 -5 -6 -7 -7 -8 -8 -9 -9 -10 -11 -11 -11 -11 -12 -12 -12 -12 -12 -12 -13 -13 -13 -14 -14 -14 -14 -14
-1 -2 -2 -2 -1 -1 -1 -0 -1 -2 -1 -2 -3 -4 -5 -5 -6 -6 -7 -8 -8 -9 -9 -10 -10 -11 -11 -12 -12 -12 -12 -12 -13 -13 -13 -14 -14 -14 -14 -14 -14 -15 -15 -15
0 0 0 1 0 0 -0 -1 -2 -2 -3 -3 -4 -5 -6 -6 -6 -7 -8 -9 -9 -10 -10 -11 -11 -12 -12 -12 -13 -13 -13 -13 -14 -14 -14 -14 -14 -14 -15 -15 -15 -15 -15 -14
1 0 0 -0 -1 -1 -2 -3 -3 -4 -4 -5 -5 -6 -6 -7 -8 -8 -9 -10 -10 -11 -11 -12 -12 -12 -13 -13 -14 -14 -14 -14 -14 -15 -15 -14 -15 -15 -16 -16 -16 -15 -14 -14

GFSNGP_925_temp_315.txt.gz
Temp
16 18 16 16 15 12 12 16 15 19 19 20 20 18 17 17 17 16 14 13 12 11 10 11 10 10 10 9 9 8 8 8 8 7 7 6 5 5 4 4 4 3 3 3
16 17 17 18 18 16 14 16 16 17 17 20 19 17 17 17 17 15 14 14 12 12 11 10 10 9 9 8 8 8 8 8 7 7 6 5 4 4 4 4 3 3 3 3
14 16 15 12 15 17 17 16 16 14 16 18 19 17 16 16 15 14 13 13 12 10 10 10 9 9 8 8 7 7 7 7 7 5 5 4 4 4 4 3 3 3 2 2
10 14 10 15 19 18 17 17 16 17 18 18 17 15 14 14 14 13 13 11 11 10 10 9 8 8 7 7 7 7 7 7 6 5 4 4 4 3 3 3 3 2 2 2
9 10 14 17 18 18 18 18 17 16 18 16 15 14 13 14 13 11 9 8 9 9 9 8 8 8 7 7 7 7 7 6 5 4 4 4 3 3 3 2 2 2 1 1
10 10 11 15 18 18 18 13 15 15 16 15 14 11 11 11 10 9 9 9 9 8 8 8 8 8 8 7 7 7 6 5 4 4 4 3 3 3 2 2 2 1 1 1
8 10 12 17 17 18 15 12 14 14 13 12 11 11 10 10 9 9 9 9 9 8 8 8 8 7 7 6 6 6 5 5 4 4 4 3 3 2 2 2 1 1 0 -0
8 7 11 17 17 16 13 15 14 12 11 10 10 10 10 10 9 9 9 9 9 8 8 8 7 6 6 6 5 5 5 4 4 4 3 3 2 1 1 1 1 0 -0 -1
10 10 13 13 13 15 14 14 12 11 11 11 10 10 10 9 9 9 9 9 8 8 7 6 6 5 5 4 4 4 3 3 2 2 2 1 1 1 1 0 -0 -1 -1 -1
12 14 13 12 14 15 13 13 12 12 11 10 10 9 9 9 9 9 8 7 6 6 6 5 4 4 4 3 3 2 1 1 1 1 1 0 -0 -0 -1 -1 -1 -2 -1 -2
13 13 12 12 13 12 12 12 11 11 10 10 10 9 9 8 7 6 6 6 5 4 4 4 3 3 3 2 1 1 1 1 1 -0 -1 -1 -1 -1 -1 -1 -1 -2 -2 -3
10 13 11 11 11 11 11 10 10 10 9 8 8 7 7 5 5 5 5 4 4 4 3 2 2 2 1 1 0 0 -0 -0 -1 -2 -2 -2 -2 -3 -3 -2 -3 -3 -3 -3
13 12 11 11 11 11 10 9 8 8 7 6 6 6 6 5 5 4 3 3 2 1 1 1 1 0 -0 -1 -1 -1 -1 -2 -2 -2 -3 -3 -3 -3 -4 -3 -3 -3 -3 -3
11 11 10 11 9 9 9 8 7 6 6 6 5 5 4 4 3 2 2 1 1 0 -0 -1 -1 -1 -2 -2 -2 -2 -2 -3 -3 -3 -4 -4 -4 -4 -4 -4 -4 -4 -4 -4
11 11 9 9 9 8 8 7 6 6 5 4 4 3 2 1 1 1 0 -0 -1 -1 -2 -2 -3 -3 -3 -3 -3 -3 -3 -4 -4 -4 -5 -5 -5 -5 -5 -5 -5 -5 -5 -5
9 9 9 8 8 7 7 6 5 5 4 2 2 1 0 -0 -0 -1 -1 -2 -3 -3 -3 -3 -3 -4 -4 -3 -3 -4 -5 -5 -5 -6 -6 -6 -6 -6 -6 -6 -6 -6 -6 -6
8 7 7 7 7 7 6 5 5 4 1 0 -0 -1 -1 -2 -2 -2 -3 -3 -3 -3 -2 -3 -4 -4 -4 -4 -5 -5 -6 -6 -7 -7 -7 -7 -6 -7 -7 -7 -7 -7 -7 -7
9 8 8 7 5 4 4 4 2 1 -0 -1 -1 -2 -2 -3 -3 -4 -4 -4 -3 -3 -3 -4 -4 -5 -5 -6 -7 -7 -8 -8 -8 -8 -8 -7 -8 -8 -8 -8 -8 -9 -9 -9
8 6 5 5 4 4 3 2 2 1 -1 -1 -2 -3 -3 -4 -4 -4 -4 -4 -4 -4 -5 -6 -6 -6 -7 -8 -8 -8 -9 -9 -9 -9 -9 -9 -9 -9 -9 -10 -10 -10 -10 -11
5 5 5 4 4 3 2 2 0 -1 -2 -2 -3 -3 -4 -4 -4 -4 -4 -4 -5 -6 -6 -7 -7 -8 -9 -9 -9 -10 -10 -10 -10 -10 -10 -10 -10 -10 -11 -11 -11 -11 -12 -12
4 3 1 1 1 1 0 0 -0 -2 -3 -3 -3 -4 -4 -4 -4 -4 -4 -5 -6 -7 -7 -8 -8 -9 -10 -10 -10 -11 -11 -10 -11 -11 -11 -11 -12 -12 -12 -12 -13 -13 -13 -13
1 0 -0 -0 -1 -1 -1 -1 -2 -2 -3 -3 -3 -4 -4 -4 -4 -4 -5 -6 -7 -7 -8 -8 -9 -10 -10 -11 -11 -11 -11 -12 -12 -12 -12 -13 -12 -13 -13 -13 -13 -14 -14 -14
-1 -0 -1 -1 -2 -2 -2 -2 -3 -2 -2 -3 -3 -4 -4 -4 -5 -6 -6 -7 -7 -8 -9 -9 -10 -11 -11 -11 -12 -12 -13 -13 -13 -13 -13 -13 -13 -14 -14 -14 -14 -14 -14 -14
-1 -1 -2 -2 -2 -2 -2 -2 -2 -2 -2 -3 -3 -4 -5 -5 -6 -6 -7 -8 -8 -9 -10 -10 -11 -11 -12 -12 -13 -13 -13 -13 -14 -14 -13 -14 -14 -14 -14 -14 -14 -15 -15 -15
-2 -2 -2 -2 -2 -2 -1 -1 -2 -3 -3 -4 -4 -5 -5 -6 -7 -8 -8 -9 -10 -10 -11 -11 -12 -12 -13 -13 -14 -14 -14 -14 -14 -14 -15 -15 -15 -14 -15 -15 -16 -16 -15 -15
-1 -1 -1 -1 -1 -1 -2 -2 -3 -4 -4 -5 -5 -5 -6 -7 -8 -8 -9 -10 -11 -11 -12 -13 -13 -13 -14 -14 -15 -15 -15 -14 -14 -15 -15 -15 -15 -16 -16 -16 -16 -16 -16 -15
-0 -0 -1 -1 -2 -2 -3 -4 -4 -5 -5 -6 -6 -6 -7 -8 -9 -10 -10 -11 -12 -13 -13 -13 -14 -14 -15 -15 -15 -15 -15 -15 -15 -15 -16 -15 -16 -17 -17 -17 -17 -16 -16 -16